| time (UTC) | temp F | wind direction | speed MPH | gust MPH | rain 1hr in | rain 24hr in | rain mn in | humidity % | barometer mb |
| 20260504220024 | 79 | 285 | 4.0 | 13.0 | 0.00 | 0.00 | 0.00 | 29 | 999.7 |
| 20260504214527 | 78 | 350 | 3.0 | 9.0 | 0.00 | 0.00 | 0.00 | 32 | 999.6 |
| 20260504213024 | 78 | 360 | 4.0 | 12.0 | 0.00 | 0.00 | 0.00 | 31 | 999.6 |
| 20260504211522 | 78 | 12 | 3.0 | 17.0 | 0.00 | 0.00 | 0.00 | 36 | 999.6 |
| 20260504210034 | 79 | 251 | 3.0 | 10.0 | 0.00 | 0.00 | 0.00 | 32 | 999.5 |
| 20260504204530 | 80 | 232 | 2.0 | 16.0 | 0.00 | 0.00 | 0.00 | 33 | 999.4 |
| 20260504203025 | 80 | 321 | 5.0 | 16.0 | 0.00 | 0.00 | 0.00 | 33 | 999.5 |
| 20260504201520 | 80 | 243 | 4.0 | 15.0 | 0.00 | 0.00 | 0.00 | 31 | 999.3 |
| 20260504200020 | 81 | 354 | 5.0 | 10.0 | 0.00 | 0.00 | 0.00 | 31 | 999.2 |
| 20260504194519 | 81 | 331 | 3.0 | 11.0 | 0.00 | 0.00 | 0.00 | 34 | 999.2 |
| 20260504193018 | 81 | 25 | 3.0 | 10.0 | 0.00 | 0.00 | 0.00 | 30 | 999.0 |
| 20260504191517 | 82 | 337 | 4.0 | 12.0 | 0.00 | 0.00 | 0.00 | 31 | 999.0 |
| 20260504190017 | 82 | 268 | 3.0 | 13.0 | 0.00 | 0.00 | 0.00 | 28 | 998.8 |
| 20260504184514 | 82 | 288 | 2.0 | 12.0 | 0.00 | 0.00 | 0.00 | 26 | 998.9 |
| 20260504183013 | 81 | 260 | 3.0 | 14.0 | 0.00 | 0.00 | 0.00 | 27 | 999.1 |
| 20260504181511 | 81 | 326 | 4.0 | 11.0 | 0.00 | 0.00 | 0.00 | 27 | 999.0 |
| 20260504180010 | 81 | 317 | 2.0 | 10.0 | 0.00 | 0.00 | 0.00 | 28 | 999.1 |
| 20260504174508 | 80 | 305 | 3.0 | 11.0 | 0.00 | 0.00 | 0.00 | 30 | 999.2 |
| 20260504173004 | 80 | 239 | 3.0 | 13.0 | 0.00 | 0.00 | 0.00 | 32 | 999.4 |
| 20260504171502 | 79 | 299 | 3.0 | 11.0 | 0.00 | 0.00 | 0.00 | 36 | 999.4 |
| 20260504081521 | 46 | 245 | 0.0 | 0.0 | 0.00 | 0.00 | 0.00 | 74 | 1001.2 |
| 20260504044551 | 48 | 245 | 0.0 | 0.0 | 0.00 | 0.00 | 0.00 | 77 | 1004.2 |
| 20260504043054 | 49 | 245 | 0.0 | 0.0 | 0.00 | 0.00 | 0.00 | 75 | 1004.5 |
| 20260504041544 | 50 | 245 | 0.0 | 0.0 | 0.00 | 0.00 | 0.00 | 74 | 1004.6 |
| 20260504040042 | 50 | 245 | 0.0 | 0.0 | 0.00 | 0.00 | 0.00 | 72 | 1004.6 |
| 20260504034544 | 51 | 245 | 0.0 | 0.0 | 0.00 | 0.00 | 0.00 | 72 | 1004.7 |
| 20260504033033 | 52 | 245 | 0.0 | 0.0 | 0.00 | 0.00 | 0.00 | 72 | 1004.9 |
| 20260504031533 | 54 | 245 | 0.0 | 0.0 | 0.00 | 0.00 | 0.00 | 67 | 1004.8 |
| 20260504030034 | 55 | 245 | 0.0 | 1.0 | 0.00 | 0.00 | 0.00 | 66 | 1005.0 |
| 20260504024529 | 55 | 245 | 0.0 | 0.0 | 0.00 | 0.00 | 0.00 | 64 | 1005.0 |
| 20260504023027 | 55 | 245 | 0.0 | 1.0 | 0.00 | 0.00 | 0.00 | 66 | 1005.0 |
| 20260504021526 | 56 | 245 | 0.0 | 0.0 | 0.00 | 0.00 | 0.00 | 60 | 1005.2 |
| 20260504020034 | 57 | 245 | 0.0 | 0.0 | 0.00 | 0.00 | 0.00 | 58 | 1005.2 |
| 20260504014523 | 59 | 245 | 0.0 | 0.0 | 0.00 | 0.00 | 0.00 | 56 | 1005.2 |
| 20260504013031 | 61 | 245 | 0.0 | 0.0 | 0.00 | 0.00 | 0.00 | 52 | 1005.3 |
| 20260504011522 | 64 | 245 | 0.0 | 1.0 | 0.00 | 0.00 | 0.00 | 51 | 1005.3 |
| 20260504010020 | 66 | 245 | 0.0 | 0.0 | 0.00 | 0.00 | 0.00 | 45 | 1005.5 |
| 20260504004519 | 69 | 245 | 0.0 | 0.0 | 0.00 | 0.00 | 0.00 | 44 | 1005.6 |
| 20260504003017 | 71 | 245 | 0.0 | 0.0 | 0.00 | 0.00 | 0.00 | 36 | 1005.7 |
| 20260504001523 | 72 | 245 | 0.0 | 2.0 | 0.00 | 0.00 | 0.00 | 35 | 1005.9 |
| 20260504000014 | 73 | 238 | 0.0 | 3.0 | 0.00 | 0.00 | 0.00 | 34 | 1006.0 |
| 20260503234516 | 73 | 243 | 1.0 | 4.0 | 0.00 | 0.00 | 0.00 | 32 | 1006.1 |
| 20260503233018 | 74 | 257 | 1.0 | 3.0 | 0.00 | 0.00 | 0.00 | 31 | 1006.1 |
| 20260503231510 | 74 | 236 | 1.0 | 4.0 | 0.00 | 0.00 | 0.00 | 32 | 1006.3 |
| 20260503230031 | 73 | 234 | 0.0 | 4.0 | 0.00 | 0.00 | 0.00 | 32 | 1006.4 |
| 20260503224512 | 73 | 245 | 0.0 | 4.0 | 0.00 | 0.00 | 0.00 | 32 | 1006.4 |
| 20260503223007 | 74 | 239 | 1.0 | 5.0 | 0.00 | 0.00 | 0.00 | 32 | 1006.5 |
| 20260503221508 | 74 | 343 | 1.0 | 6.0 | 0.00 | 0.00 | 0.00 | 33 | 1006.6 |